Regional Weather Roundup
Issued by NWS

Home | Current Version | Previous Version | Text Only | Print | Product List | Glossary On
Versions: 1 2 3 4 5 6 7 8 9 10 11 12 13 14 15 16 17 18 19 20 21 22 23 24 25 26 27 28 29 30 31 32 33 34 35 36 37 38 39 40 41 42 43 44 45 46 47 48 49 50
000
ASUS44 KLUB 261310
RWRTX
WEST TEXAS WEATHER ROUNDUP
NATIONAL WEATHER SERVICE LUBBOCK TX
800 AM CDT SAT JUL 26 2014

NOTE: "FAIR" INDICATES FEW OR NO CLOUDS BELOW 12,000 FEET WITH NO
SIGNIFICANT WEATHER AND/OR OBSTRUCTIONS TO VISIBILITY.

TXZ004-006>008-010-012-014-016-OKZ002-261400-
TEXAS PANHANDLE/OKLAHOMA PANHANDLE

CITY           SKY/WX    TMP DP  RH WIND       PRES   REMARKS
AMARILLO       SUNNY     75  57  53 SW16      30.05S
BORGER         SUNNY     79  55  43 SW15G21   30.01S
CANADIAN       SUNNY     75  59  57 CALM      29.96S
DALHART        MOSUNNY   73  50  44 S9        30.06S
DUMAS          SUNNY     75  53  45 SW14      30.04S
GUYMON         MOSUNNY   75  52  44 SW5       29.97R
HEREFORD       MOSUNNY   72  59  62 S12       30.08S
PAMPA          SUNNY     76  55  47 W14G20    30.03S
PERRYTON       SUNNY     77  51  40 SW14      29.98R
$$

TXZ026-029-035-045-048-261400-
SOUTHERN PANHANDLE/SOUTH PLAINS/ROLLING PLAINS

CITY           SKY/WX    TMP DP  RH WIND       PRES   REMARKS
CHILDRESS      SUNNY     73  63  70 S8        29.99R
SEMINOLE       SUNNY     71  61  69 CALM      30.08S
LUBBOCK        MOSUNNY   75  59  57 SW10      30.06R
PLAINVIEW      SUNNY     67  61  78 W6        30.05S
SNYDER         SUNNY     75  63  66 S7        30.05R
$$

TXZ052-054-060>062-072-078-127-140-154-169-261400-
PERMIAN BASIN/CONCHO VALLEY/BIG COUNTRY/EDWARDS PLATEAU

CITY           SKY/WX    TMP DP  RH WIND       PRES   REMARKS
ABILENE        SUNNY     78  66  66 S10       30.02R
BIG SPRING     SUNNY     79  64  60 S10       30.06R
BRADY          SUNNY     75  66  73 S6        30.04R
BROWNWOOD      SUNNY     75  68  78 SE6       30.04R
JUNCTION       SUNNY     75  68  78 CALM      30.04R
MIDLAND        SUNNY     76  63  64 S6        30.04R
ODESSA         SUNNY     76  62  62 S9        30.05R
SAN ANGELO     SUNNY     76  66  71 S12       30.02R
SONORA         SUNNY     75  66  73 SE5       30.09R
SWEETWATER     SUNNY     79  63  58 S12       30.07R
WINK           SUNNY     75  63  66 SE9       30.01R
$$

TXZ055-058-074-075-080-082-261400-
FAR WEST/SOUTHWEST MOUNTAINS/TRANS PECOS

CITY           SKY/WX    TMP DP  RH WIND       PRES   REMARKS
ALPINE         CLEAR     73  56  55 SW7       30.19S
DRYDEN           N/A     78  68  71 E5        30.01R
EL PASO        CLEAR     78  45  30 CALM      30.06R
FORT STOCKTON  SUNNY     73  61  65 S9        30.04R
GUADALUPE PASS   N/A     72  55  55 MISG        N/A
MARFA          CLEAR     63  55  77 N6        30.19R
PECOS          CLEAR     71  60  69 CALM      30.00R
PRESIDIO       FAIR      80  57  45 NE3       30.02R
$$

TXZ014-016-019-021>030-083-261400
TEXAS TECH WEST TEXAS MESONET/TEXAS PANHANDLE/NORTHERN SOUTH PLAINS

CITY           SKY/WX    TMP DP  RH WIND       PRES   REMARKS
ABERNATHY 5ENE   N/A     71  59  66 SW7       30.07S
AMARILLO 9NNE    N/A     76  58  53 SW9       30.04R
AMARILLO 7SSE    N/A     75  58  55 SW15      30.07R
AMHERST 1NE      N/A     72  58  62 SW10      30.08S
BOOTLEG 11WNW    N/A     72  56  55 SW13      30.13R
CANADIAN 6E      N/A     75  60  57 SW5       29.95F
CAPROCK CYN SP   N/A     79  60  51 SW17      30.01R
CHILDRESS 2NNE   N/A     76  63  64 S8        29.98R
CLARENDON 2WSW   N/A     77  58  50 SW8       30.01S
CLAUDE 12SW      N/A     80  57  45 SW13      30.05F
DIMMITT 2NE      N/A     72  57  60 SW12      30.09S
FLOYDADA 2NNE    N/A     71  57  61 SW9       30.05S
FRIONA 2NE       N/A     72  57  59 SW10      30.10S
GOODLETT 3W      N/A     74  62  66 S6        29.97R
HART 3N          N/A     68  59  73 SW5       30.09R
HEREFORD 2NW     N/A     73  56  55 S12       30.08S
MCLEAN 1E        N/A     73  59  61 SW5       30.00S
MEMPHIS 1NE      N/A     72  63  73 CALM      29.98R
MULESHOE 2SSW    N/A     72  59  62 SW6       30.09R
OLTON 6S         N/A     69  60  70 SW5       30.08R
PALO DURO SP     N/A     76  58  52 SW17      30.06S
PAMPA 2E         N/A     75  57  54 SW9       30.02S
PLAINVIEW 1S     N/A     69  59  72 W6        30.06S
SILVERTON 7ESE   N/A     71  58  63 W10       30.05R
TULIA 2ENE       N/A     72  59  62 SW15      30.06S
TURKEY 2WSW      N/A     77  60  55 SW9       29.99S
UMBARGER 3NNE    N/A     71  57  62 SW12      30.08S
$$

TXZ033>036-039>041-045>048-261400
TEXAS TECH WEST TEXAS MESONET/SOUTH PLAINS

CITY           SKY/WX    TMP DP  RH WIND       PRES   REMARKS
AIKEN 3WSW       N/A     67  61  79 SW6       30.07S
ANTON 6SSW       N/A     72  60  65 S8        30.07R
BROWNFIELD 2S    N/A     70  60  68 SW6       30.08R
DENVR CTY 7WNW   N/A     69  58  69 SW5       30.09R
GAIL 2ESE        N/A     77  62  58 S8        30.04R
LAMESA 2SE       N/A     73  62  69 SE5       30.06R
LEVELLAND 4S     N/A     71  58  64 S7        30.08R
LUBBOCK 3WNW     N/A     75  59  57 SW9       30.07R
MORTON 1ENE      N/A     71  59  64 S9        30.09R
ODONNELL 1N      N/A     72  59  64 S5        30.07R
PLAINS 3N        N/A     71  59  66 SW7       30.09S
RALLS 1SE        N/A     70  60  69 W6        30.07R
REESE CENTER     N/A     73  59  60 S9        30.07S
SEAGRAVES 1SW    N/A     73  61  66 S7        30.07S
SEMINOLE 2NNE    N/A     74  61  62 S6        30.07R
SLATON 2NE       N/A     73  58  59 SW9       30.07R
SNYDER 3E        N/A     77  63  61 S8        30.03S
SUNDOWN 8SW      N/A     69  59  70 SW7       30.08S
TAHOKA 3NNE      N/A     72  58  60 CALM      30.07R
WOLFFORTH 6SSW   N/A     71  58  63 S5        30.08R
$$

TXZ031-032-036>038-042>044-261400-
TEXAS TECH WEST TEXAS MESONET/ROLLING PLAINS

CITY           SKY/WX    TMP DP  RH WIND       PRES   REMARKS
ASPERMONT 3NE    N/A     79  64  59 S2        30.00R
FLUVANNA 3WNW    N/A     75  60  60 S9        30.05R
GRAHAM 5SSW      N/A     76  60  58 SW5       30.06R
GUTHRIE 10WSW    N/A     76  62  61 S5        30.00R
HASKELL 1NW      N/A     78  63  59 S8        29.98R
JAYTON 1SSE      N/A     79  63  57 SW6       30.01R
KNOX CITY 3NW    N/A     79  62  56 S6        29.98S
LK A HENRY 1NW   N/A     80  63  55 SW8       30.02S
NORTHFIELD 1S    N/A     76  62  62 SW1       29.98S
ODELL 4ENE       N/A     80  65  62 S13       29.97R
PADUCAH 10SW     N/A     73  63  70 S5        30.00R
POST 1NE         N/A     78  60  53 SW8       30.04R
RRING SPRGS 3N   N/A     76  62  62 SW9       30.02R
SEYMOUR 3NW      N/A     79  64  59 S7        29.97R
SPUR 1W          N/A     74  60  62 SW2       30.01R
WEINERT 2NNE     N/A     79  65  61 S7        29.99R
WHITE RVR 6NE    N/A     77  60  56 SW9       30.04R
$$

TXZ052-054-060>062-072-078-127-140-154-169-261400-
TEXAS TECH WEST TEXAS MESONET/PERMIAN BASIN/
CONCHO VALLEY/BIG COUNTRY/EDWARDS PLATEAU

CITY           SKY/WX    TMP DP  RH WIND       PRES   REMARKS
COYANOSA 2N      N/A     76  62  61 SE10      30.01R
JUNCTION 1SSW    N/A     75  68  80 S2        30.05S
MERTZON 3NNE     N/A     75  66  74 S9        30.05R
SAN ANGELO 7NW   N/A     77  65  65 SE2       30.03R
STRLNG CT 4WSW   N/A     76  65  68 SE6       30.05R
ST LAWRNCE 5SW   N/A     73  63  70 SE9       30.04S
SWEETWATR 11SW   N/A     77  64  63 S9        30.06R
WALL 1E          N/A     78  65  63 S9        30.03R
$$

TXZ055-058-074-075-080-082-261400-
TEXAS TECH WEST TEXAS MESONET/FAR WEST/SOUTHWEST MOUNTAINS/TRANS PECOS

CITY           SKY/WX    TMP DP  RH WIND       PRES   REMARKS
GUADLPE MTN NP   N/A     75  50  42 SW10      30.20S
$$



USA.gov is the U.S. government's official web portal to all federal, state and local government web resources and services.